Change the Weather History Date:

Thursday, July 4, 2013

  Actual Average Record
Temperature  
Mean Temperature 100 °F -  
Max Temperature 109 °F 107 °F - ()
Min Temperature 92 °F 84 °F - ()
Cooling Degree Days 36    
Growing Degree Days 50 (Base 50)    
Moisture  
Dew Point 52 °F    
Average Humidity 21    
Maximum Humidity 34    
Minimum Humidity 4    
Precipitation  
Precipitation 0.00 in 0.00 in - ()
Sea Level Pressure  
Sea Level Pressure 29.47 in    
Wind  
Wind Speed 10 mph ()    
Max Wind Speed 22 mph    
Max Gust Speed -    
Visibility 5.6 miles    
Events      
T = Trace of Precipitation, MM = Missing Value Source: Averaged Metar Reports

Daily Weather History Graph

Daily Weather History Graph

Search for Another Location

Airport or City:

Trip Planner

Search our weather history database for the weather conditions in past years. The results will help you decide how hot, cold, wet, or windy it might be!

Date:

Astronomy

Jul. 04, 2013 Rise Set
Actual Time 4:48 AM AST 6:28 PM AST
Civil Twilight 4:22 AM AST 6:53 PM AST
Nautical Twilight 3:51 AM AST 7:24 PM AST
Astronomical Twilight 3:19 AM AST 7:56 PM AST
Moon 1:40 AM AST (7/4) 3:18 PM AST (7/4)
Length of Visible Light 14h 31m
Length of Day
13h 40m
Waning Crescent, 13% of the Moon is Illuminated
Jul 4
Waning Crescent
Jul 8
New
Jul 16
First Quarter
Jul 22
Full
Jul 29
Last Quarter

Hourly Weather History & Observations

Time (AST) Temp. Heat Index Dew Point Humidity Pressure Visibility Wind Dir Wind Speed Gust Speed Precip Events Conditions
12:00 AM 96.8 °F 95.1 °F 55.4 °F 25% 29.47 in - NW 8.1 mph - N/A   Clear
12:30 AM 95.0 °F 93.7 °F 57.2 °F 28% 29.44 in - West 9.2 mph - N/A   Clear
1:00 AM 95.0 °F 93.7 °F 57.2 °F 28% 29.44 in - West 5.8 mph - N/A   Clear
1:30 AM 95.0 °F 94.4 °F 59.0 °F 30% 29.44 in - WNW 4.6 mph - N/A   Clear
2:00 AM 95.0 °F 95.2 °F 60.8 °F 32% 29.44 in - WNW 3.5 mph - N/A   Clear
2:30 AM 95.0 °F 93.0 °F 55.4 °F 26% 29.44 in - NW 8.1 mph - N/A   Clear
3:00 AM 95 °F - 54 °F 17% 29.47 in 7 mi NW 9.2 mph - -  
3:00 AM 95.0 °F 93.0 °F 55.4 °F 26% 29.44 in - NW 9.2 mph - N/A   Clear
3:30 AM 95.0 °F 93.0 °F 55.4 °F 26% 29.44 in - NW 10.4 mph - N/A   Clear
4:00 AM 95.0 °F 93.7 °F 57.2 °F 28% 29.44 in - NW 11.5 mph - N/A   Clear
4:30 AM 93.2 °F 93.3 °F 60.8 °F 34% 29.44 in - NW 11.5 mph - N/A   Clear
5:00 AM 93.2 °F 93.3 °F 60.8 °F 34% 29.47 in - NW 11.5 mph - N/A   Clear
6:00 AM 95.0 °F 94.4 °F 59.0 °F 30% 29.47 in - NW 12.7 mph - N/A   Clear
6:30 AM 95.0 °F 95.2 °F 60.8 °F 32% 29.50 in - NW 11.5 mph - N/A   Clear
7:00 AM 96.8 °F 98.0 °F 62.6 °F 32% 29.50 in 5.6 mi NNW 9.2 mph - N/A   Unknown
7:30 AM 96.8 °F 97.1 °F 60.8 °F 30% 29.50 in 5.6 mi NW 12.7 mph - N/A   Unknown
8:00 AM 98.6 °F 99.4 °F 60.8 °F 29% 29.50 in 5.6 mi NW 12.7 mph - N/A   Unknown
9:00 AM 101 °F - 60 °F 17% 29.53 in 5 mi North 12.7 mph - -   Widespread Dust
9:00 AM 100.4 °F 101.3 °F 60.8 °F 27% 29.50 in 5.0 mi North 12.7 mph - N/A   Unknown
10:00 AM 105.8 °F - 48.2 °F 14% 29.50 in 5.0 mi North 19.6 mph - N/A   Unknown
11:00 AM 107.6 °F - 42.8 °F 11% 29.50 in 5.0 mi NNW 21.9 mph - N/A   Unknown
12:00 PM 105.8 °F - 46.4 °F 14% 29.50 in 5.6 mi North 19.6 mph - N/A   Unknown
1:00 PM 109.4 °F - 41.0 °F 10% 29.47 in - NNW 17.3 mph - N/A   Clear
2:00 PM 107.6 °F - 39.2 °F 10% 29.47 in - NW 12.7 mph - N/A   Clear
2:30 PM 107.6 °F - 37.4 °F 9% 29.47 in - NW 15.0 mph - N/A   Clear
3:00 PM 107 °F - 37 °F 4% 29.47 in 6 mi NNW 16.1 mph - -  
3:00 PM 107.6 °F - 37.4 °F 9% 29.44 in - NNW 16.1 mph - N/A   Clear
3:30 PM 105.8 °F - 42.8 °F 12% 29.44 in - NNW 16.1 mph - N/A   Clear
4:00 PM 105.8 °F - 41.0 °F 11% 29.44 in - NNW 13.8 mph - N/A   Clear
4:30 PM 104.0 °F - 41.0 °F 12% 29.44 in - NNW 13.8 mph - N/A   Clear
5:00 PM 104.0 °F - 39.2 °F 11% 29.44 in - NNW 13.8 mph - N/A   Clear
5:30 PM 104.0 °F - 42.8 °F 12% 29.44 in - NNW 12.7 mph - N/A   Clear
6:00 PM 102.2 °F - 44.6 °F 14% 29.44 in - NNW 12.7 mph - N/A   Clear
6:30 PM 102.2 °F - 46.4 °F 15% 29.44 in - NW 10.4 mph - N/A   Clear
7:00 PM 100.4 °F - 51.8 °F 20% 29.47 in - NW 11.5 mph - N/A   Clear
7:30 PM 98.6 °F 96.4 °F 53.6 °F 22% 29.47 in - NW 10.4 mph - N/A   Clear
8:00 PM 98.6 °F 97.2 °F 55.4 °F 24% 29.47 in - NW 9.2 mph - N/A   Clear
8:30 PM 96.8 °F 95.1 °F 55.4 °F 25% 29.50 in - NNW 9.2 mph - N/A   Clear
9:00 PM 97 °F - 57 °F 17% 29.51 in 6 mi NW 5.8 mph - -  
9:00 PM 96.8 °F 95.8 °F 57.2 °F 27% 29.50 in - NW 10.4 mph - N/A   Clear
9:30 PM 96.8 °F 95.8 °F 57.2 °F 27% 29.50 in - NW 6.9 mph - N/A   Clear
10:00 PM 96.8 °F 95.1 °F 55.4 °F 25% 29.47 in - NW 5.8 mph - N/A   Clear
11:00 PM 95.0 °F 93.7 °F 57.2 °F 28% 29.47 in - WNW 3.5 mph - N/A   Clear